Location: Unspecified
(0.0000°N, 0.0000°E)
Time: 19:12:25
(UTC+00:00)

Hubble Space Telescope - Pass Details

Date: 23 October 2021
Orbit: 535 x 539 km, 28.5° (Epoch: 24 October)

Event Time Altitude Azimuth Distance (km) Brightness Sun altitude
Rises 19:32:09 0° 281° (W) 2,661 5.4 -26.4°
Reaches altitude 10° 19:36:15 10° 320° (NW) 1,769 3.7 -27.4°
Enters shadow 19:36:56 11° 330° (NNW) 1,733 3.5 -27.5°
